Fremont, MI

7:10 AM EST on February 11, 2016 (GMT -0500)
Fremont

Weather History for KFFX - July, 2012

Change the Weather History Date:

Thursday, July 19, 2012

  Actual Average (KMKG) Record (KMKG)
Temperature  
Mean Temperature 68 °F 71 °F  
Max Temperature 74 °F 81 °F 94 °F (2011)
Min Temperature 62 °F 62 °F 44 °F (1912)
Degree Days  
Heating Degree Days 0 0  
Month to date heating degree days 4  
Since 1 June heating degree days 70  
Since 1 July heating degree days 4  
Cooling Degree Days 3 7  
Month to date cooling degree days 124  
Year to date cooling degree days 258  
Since 1 June cooling degree days 229  
Growing Degree Days 18 (Base 50)    
Moisture  
Dew Point 65 °F    
Average Humidity 92    
Maximum Humidity 100    
Minimum Humidity 83    
Precipitation  
Precipitation 0.00 in 0.07 in 1.74 in (1950)
Month to date precipitation 1.36  
Year to date precipitation 16.18  
Snow  
Snow 0.00 in 0.00 in - ()
Month to date snowfall 0.0  
Since 1 June snowfall 0.0  
Since 1 July snowfall 0.0  
Snow Depth -    
Sea Level Pressure  
Sea Level Pressure 29.95 in    
Wind  
Wind Speed 8 mph (ENE)    
Max Wind Speed 16 mph    
Max Gust Speed 23 mph    
Visibility 8 miles    
Events Rain    
T = Trace of Precipitation, MM = Missing Value Source: NWS Daily Summary

Daily Weather History Graph

Daily Weather History Graph

Search for Another Location

Airport or City:

Trip Planner

Search our weather history database for the weather conditions in past years. The results will help you decide how hot, cold, wet, or windy it might be!

Date:

Astronomy

Jul. 19, 2012 Rise Set
Actual Time 6:21 AM EDT 9:19 PM EDT
Civil Twilight 5:47 AM EDT 9:52 PM EDT
Nautical Twilight 5:03 AM EDT 10:36 PM EDT
Astronomical Twilight 4:12 AM EDT 11:26 PM EDT
Moon 6:57 AM EDT (7/19) 9:21 PM EDT (7/19)
Length of Visible Light 16h 05m
Length of Day
14h 58m
New Moon, 0% of the Moon is Illuminated
Jul 19
New Moon
Jul 26
First Quarter
Aug 1
Full
Aug 9
Last Quarter
Aug 17
New

Hourly Weather History & Observations

Time (EDT) Temp. Dew Point Humidity Pressure Visibility Wind Dir Wind Speed Gust Speed Precip Events Conditions
12:16 AM 74.1 °F 69.8 °F 86% 29.94 in 10.0 mi East 8.1 mph - N/A   Scattered Clouds
12:36 AM 73.4 °F 70.2 °F 90% 29.93 in 10.0 mi East 5.8 mph - N/A   Scattered Clouds
12:55 AM 72.9 °F 69.8 °F 90% 29.92 in 10.0 mi East 5.8 mph - N/A   Scattered Clouds
1:16 AM 72.7 °F 68.9 °F 88% 29.91 in 10.0 mi East 9.2 mph - N/A   Scattered Clouds
1:36 AM 72.3 °F 67.3 °F 84% 29.90 in 10.0 mi East 11.5 mph 17.3 mph N/A   Clear
1:56 AM 71.6 °F 66.9 °F 85% 29.89 in 10.0 mi ENE 8.1 mph 16.1 mph N/A Rain Light Rain
2:15 AM 71.1 °F 66.7 °F 86% 29.91 in 10.0 mi East 4.6 mph - N/A   Light Drizzle
2:36 AM 70.7 °F 67.1 °F 88% 29.92 in 10.0 mi ENE 5.8 mph - N/A Rain Light Rain
2:56 AM 70.7 °F 66.6 °F 87% 29.92 in 10.0 mi ENE 6.9 mph - N/A   Mostly Cloudy
3:15 AM 70.3 °F 66.6 °F 88% 29.91 in 10.0 mi ENE 4.6 mph - N/A   Overcast
3:36 AM 69.8 °F 66.4 °F 89% 29.91 in 10.0 mi ENE 9.2 mph - N/A   Light Drizzle
3:55 AM 69.3 °F 66.2 °F 90% 29.91 in 10.0 mi ENE 5.8 mph - N/A   Overcast
4:16 AM 69.1 °F 66.2 °F 91% 29.91 in 10.0 mi ENE 4.6 mph - N/A   Overcast
4:36 AM 68.9 °F 66.0 °F 90% 29.91 in 10.0 mi Calm Calm - N/A   Overcast
4:55 AM 68.7 °F 66.2 °F 92% 29.92 in 10.0 mi Calm Calm - N/A   Overcast
5:16 AM 68.9 °F 66.2 °F 91% 29.92 in 10.0 mi ENE 9.2 mph - N/A   Overcast
5:35 AM 68.4 °F 65.5 °F 90% 29.92 in 10.0 mi ENE 8.1 mph - N/A   Overcast
5:56 AM 68.4 °F 65.7 °F 91% 29.92 in 10.0 mi ENE 5.8 mph - N/A   Overcast
6:15 AM 68.2 °F 65.3 °F 90% 29.93 in 10.0 mi ENE 6.9 mph - N/A   Overcast
6:36 AM 68.0 °F 63.5 °F 85% 29.93 in 10.0 mi ENE 9.2 mph - N/A   Overcast
6:55 AM 67.6 °F 62.8 °F 84% 29.93 in 10.0 mi East 3.5 mph - N/A   Overcast
7:16 AM 67.5 °F 62.8 °F 85% 29.93 in 10.0 mi Calm Calm - N/A   Overcast
7:35 AM 67.3 °F 62.8 °F 85% 29.93 in 10.0 mi East 5.8 mph - N/A   Overcast
7:56 AM 67.5 °F 63.0 °F 85% 29.93 in 10.0 mi East 5.8 mph - N/A   Scattered Clouds
8:16 AM 67.6 °F 63.0 °F 85% 29.93 in 10.0 mi ENE 8.1 mph - N/A   Mostly Cloudy
8:36 AM 68.0 °F 63.0 °F 84% 29.94 in 10.0 mi East 4.6 mph - N/A   Overcast
8:56 AM 68.5 °F 63.3 °F 83% 29.94 in 10.0 mi East 4.6 mph - N/A   Overcast
9:36 AM 68.2 °F 63.1 °F 84% 29.94 in 10.0 mi East 4.6 mph - N/A   Overcast
9:56 AM 68.2 °F 63.3 °F 84% 29.95 in 10.0 mi East 5.8 mph - N/A   Overcast
10:16 AM 67.3 °F 64.4 °F 90% 29.95 in 7.0 mi East 5.8 mph - N/A Rain Rain
10:36 AM 66.4 °F 65.1 °F 96% 29.95 in 10.0 mi ENE 8.1 mph - N/A   Drizzle
10:55 AM 66.2 °F 65.3 °F 97% 29.95 in 5.0 mi ENE 8.1 mph - N/A Rain Light Rain
11:35 AM 66.4 °F 65.8 °F 98% 29.95 in 5.0 mi ENE 6.9 mph - N/A Rain Rain
11:56 AM 66.4 °F 65.8 °F 98% 29.95 in 5.0 mi ENE 6.9 mph - N/A   Drizzle
12:16 PM 66.4 °F 65.8 °F 98% 29.95 in 3.0 mi ENE 9.2 mph - N/A   Drizzle
12:35 PM 66.6 °F 66.2 °F 99% 29.95 in 3.0 mi ENE 8.1 mph - N/A Rain Rain
12:56 PM 66.6 °F 66.0 °F 98% 29.95 in 5.0 mi ENE 8.1 mph - N/A   Drizzle
1:16 PM 66.4 °F 65.5 °F 97% 29.95 in 4.0 mi ENE 10.4 mph - N/A   Light Drizzle
1:35 PM 66.2 °F 65.3 °F 97% 29.95 in 5.0 mi ENE 6.9 mph - N/A   Light Drizzle
1:56 PM 66.2 °F 65.5 °F 98% 29.96 in 3.0 mi ENE 8.1 mph - N/A Rain Rain
2:16 PM 66.2 °F 66.2 °F 100% 29.95 in 2.5 mi East 6.9 mph - N/A Rain Heavy Rain
2:36 PM 66.4 °F 66.2 °F 99% 29.95 in 3.0 mi ENE 10.4 mph - N/A Rain Light Rain
2:56 PM 67.1 °F 66.6 °F 98% 29.95 in 3.0 mi ENE 9.2 mph - N/A   Drizzle
3:15 PM 67.3 °F 66.9 °F 99% 29.95 in 4.0 mi ENE 9.2 mph - N/A   Light Drizzle
3:36 PM 67.5 °F 66.4 °F 96% 29.95 in 7.0 mi NE 10.4 mph - N/A   Overcast
3:56 PM 67.5 °F 65.8 °F 95% 29.95 in 10.0 mi ENE 9.2 mph 19.6 mph N/A   Overcast
4:15 PM 66.9 °F 65.3 °F 95% 29.96 in 10.0 mi NE 10.4 mph - N/A   Overcast
4:36 PM 66.4 °F 64.6 °F 94% 29.96 in 10.0 mi NE 12.7 mph 18.4 mph N/A   Overcast
4:56 PM 66.2 °F 64.6 °F 94% 29.96 in 7.0 mi NE 10.4 mph 16.1 mph N/A   Overcast
5:16 PM 65.5 °F 63.9 °F 94% 29.96 in 10.0 mi NE 13.8 mph 19.6 mph N/A   Light Drizzle
5:36 PM 64.9 °F 63.9 °F 96% 29.97 in 4.0 mi NE 12.7 mph 19.6 mph N/A   Drizzle
5:56 PM 64.6 °F 63.7 °F 97% 29.97 in 3.0 mi NE 12.7 mph 23.0 mph N/A Rain Rain
6:16 PM 63.7 °F 63.1 °F 98% 29.97 in 2.5 mi NE 12.7 mph 20.7 mph N/A Rain Rain
6:35 PM 62.6 °F 61.7 °F 97% 29.98 in 2.5 mi ENE 16.1 mph 23.0 mph N/A Rain Light Rain
6:56 PM 62.8 °F 62.4 °F 99% 29.98 in 4.0 mi NE 10.4 mph 16.1 mph N/A Rain Light Rain
7:15 PM 63.3 °F 62.6 °F 97% 29.98 in 7.0 mi NE 12.7 mph 17.3 mph N/A Rain Light Rain
7:36 PM 63.9 °F 63.0 °F 97% 29.98 in 10.0 mi NE 15.0 mph 19.6 mph N/A   Overcast
7:56 PM 63.9 °F 61.9 °F 93% 29.98 in 10.0 mi ENE 15.0 mph 21.9 mph N/A   Overcast
8:16 PM 63.5 °F 61.5 °F 93% 29.98 in 10.0 mi ENE 10.4 mph 18.4 mph N/A   Overcast
8:36 PM 63.5 °F 60.8 °F 91% 29.98 in 10.0 mi ENE 11.5 mph 18.4 mph N/A   Overcast
8:55 PM 63.5 °F 60.1 °F 89% 29.99 in 10.0 mi NE 11.5 mph 18.4 mph N/A   Overcast
9:16 PM 63.5 °F 59.7 °F 87% 30.00 in 10.0 mi NE 9.2 mph 18.4 mph N/A   Overcast
9:35 PM 63.5 °F 60.1 °F 89% 30.00 in 10.0 mi NNE 9.2 mph - N/A   Overcast
9:56 PM 63.5 °F 60.8 °F 91% 30.01 in 10.0 mi NE 9.2 mph - N/A   Overcast
10:16 PM 63.7 °F 61.5 °F 93% 30.01 in 10.0 mi NE 10.4 mph - N/A   Overcast
10:36 PM 63.9 °F 61.3 °F 91% 30.01 in 10.0 mi NE 9.2 mph - N/A   Overcast
10:56 PM 64.4 °F 61.0 °F 89% 30.02 in 10.0 mi NE 9.2 mph - N/A   Overcast
11:16 PM 64.4 °F 61.3 °F 90% 30.03 in 10.0 mi NE 11.5 mph 16.1 mph N/A   Overcast
11:35 PM 64.4 °F 61.5 °F 90% 30.02 in 10.0 mi NE 10.4 mph 16.1 mph N/A   Overcast
11:56 PM 64.4 °F 61.7 °F 91% 30.03 in 10.0 mi NNE 10.4 mph - N/A   Overcast